CW2927 Weather Reports


Display with metric or nautical units.
time (UTC)temp
F
wind
direction
speed
MPH
gust
MPH
rain 1hr
in
rain 24hr
in
rain mn
in
humidity
%
barometer
mb
20260509004204 47 186 2.0 3.0 0.00 0.00 0.00 63 1008.7
20260509002705 47 186 2.0 3.0 0.00 0.00 0.00 63 1008.5
20260509002205 47 187 2.0 6.0 0.00 0.00 0.00 63 1008.5
20260509000704 48 192 2.0 3.0 0.00 0.00 0.00 62 1008.3
20260509000204 48 193 2.0 3.0 0.00 0.00 0.00 61 1008.2
20260508234705 48 194 1.0 3.0 0.00 0.00 0.00 59 1008.2
20260508234205 48 194 1.0 5.0 0.00 0.00 0.00 59 1008.2
20260508232705 49 219 3.0 6.0 0.00 0.00 0.00 58 1008.1
20260508232204 49 219 4.0 10.0 0.00 0.00 0.00 59 1008.1
20260508230704 50 169 3.0 12.0 0.00 0.00 0.00 57 1008.2
20260508230204 50 198 3.0 9.0 0.00 0.00 0.00 56 1008.2
20260508224705 50 190 4.0 8.0 0.00 0.00 0.00 55 1008.1
20260508224204 50 284 3.0 9.0 0.00 0.00 0.00 53 1008.0
20260508222705 51 243 5.0 8.0 0.00 0.00 0.00 52 1008.0
20260508222205 51 270 3.0 9.0 0.00 0.00 0.00 53 1007.9
20260508220704 52 202 4.0 8.0 0.00 0.00 0.00 53 1007.9
20260508220204 52 202 3.0 8.0 0.00 0.00 0.00 52 1007.9
20260508214704 51 244 3.0 6.0 0.00 0.00 0.00 50 1007.7
20260508214205 51 219 3.0 8.0 0.00 0.00 0.00 51 1007.7
20260508212705 51 309 4.0 7.0 0.00 0.00 0.00 50 1007.7
20260508212205 51 221 3.0 7.0 0.00 0.00 0.00 50 1007.6
20260508210704 51 253 3.0 6.0 0.00 0.00 0.00 50 1007.6
20260508210204 51 275 4.0 9.0 0.00 0.00 0.00 50 1007.7
20260508204704 52 280 5.0 12.0 0.00 0.00 0.00 49 1007.5
20260508204205 52 289 5.0 13.0 0.00 0.00 0.00 50 1007.4
20260508202704 52 265 4.0 8.0 0.00 0.00 0.00 51 1007.3
20260508202204 51 218 4.0 8.0 0.00 0.00 0.00 52 1007.3
20260508200704 51 261 3.0 5.0 0.00 0.00 0.00 52 1007.3
20260508200205 51 185 5.0 7.0 0.00 0.00 0.00 52 1007.4
20260508194705 51 291 5.0 10.0 0.00 0.00 0.00 53 1007.5
20260508194205 51 249 4.0 15.0 0.00 0.00 0.00 55 1007.5
20260508192704 50 229 4.0 7.0 0.00 0.00 0.00 52 1007.5
20260508192204 50 252 6.0 14.0 0.00 0.00 0.00 51 1007.5
20260508190704 50 282 4.0 7.0 0.00 0.00 0.00 53 1007.5
20260508190204 50 289 5.0 12.0 0.00 0.00 0.00 53 1007.5
20260508184705 49 303 6.0 12.0 0.00 0.00 0.00 52 1007.6
20260508184204 49 286 6.0 15.0 0.00 0.00 0.00 52 1007.6
20260508182704 50 218 6.0 12.0 0.00 0.00 0.00 52 1007.5
20260508182204 50 277 6.0 13.0 0.00 0.00 0.00 52 1007.5
20260508180704 50 286 6.0 14.0 0.00 0.00 0.00 54 1007.5
20260508180204 49 248 4.0 10.0 0.00 0.00 0.00 56 1007.5
20260508174704 49 278 4.0 8.0 0.00 0.00 0.00 58 1007.5
20260508174205 49 232 3.0 14.0 0.00 0.00 0.00 57 1007.5
20260508172704 49 252 4.0 8.0 0.00 0.00 0.00 56 1007.5
20260508172204 49 297 5.0 9.0 0.00 0.00 0.00 57 1007.5
20260508170704 50 196 4.0 8.0 0.00 0.00 0.00 57 1007.5
20260508170205 50 192 3.0 9.0 0.00 0.00 0.00 57 1007.5
20260508164704 50 283 3.0 7.0 0.00 0.00 0.00 55 1007.5
20260508164204 50 288 4.0 9.0 0.00 0.00 0.00 56 1007.5
20260508162704 49 261 5.0 9.0 0.00 0.00 0.00 58 1007.6
20260508162206 49 246 5.0 13.0 0.00 0.00 0.00 59 1007.6
20260508160705 49 258 4.0 9.0 0.00 0.00 0.00 59 1007.7
20260508160204 49 271 4.0 9.0 0.00 0.00 0.00 59 1007.7
20260508154704 49 304 4.0 8.0 0.00 0.00 0.00 60 1007.8
20260508154205 49 271 5.0 8.0 0.00 0.00 0.00 59 1007.9
20260508152704 49 228 3.0 6.0 0.00 0.00 0.00 63 1007.8
20260508152204 48 276 4.0 8.0 0.00 0.00 0.00 61 1007.9
20260508150705 48 263 3.0 9.0 0.00 0.00 0.00 64 1008.0
20260508150204 48 311 3.0 8.0 0.00 0.00 0.00 65 1008.0
20260508144704 47 268 5.0 7.0 0.00 0.00 0.00 64 1008.0
20260508144204 47 304 4.0 9.0 0.00 0.00 0.00 66 1008.1
20260508142704 46 251 3.0 6.0 0.00 0.00 0.00 65 1008.1
20260508142204 46 275 2.0 5.0 0.00 0.00 0.00 67 1008.0
20260508140706 46 295 3.0 5.0 0.00 0.00 0.00 69 1008.1
20260508140204 46 261 3.0 6.0 0.00 0.00 0.00 69 1008.0
20260508134704 45 295 2.0 6.0 0.00 0.00 0.00 69 1008.0
20260508134204 45 272 3.0 8.0 0.00 0.00 0.00 70 1008.1
20260508132704 45 278 3.0 5.0 0.00 0.00 0.00 70 1008.1
20260508132204 45 269 3.0 5.0 0.00 0.00 0.00 71 1008.1
20260508130704 45 276 3.0 3.0 0.00 0.00 0.00 73 1008.0
20260508130205 44 266 2.0 5.0 0.00 0.00 0.00 74 1008.0
20260508124704 44 250 2.0 3.0 0.00 0.00 0.00 75 1008.0
20260508124204 44 279 2.0 3.0 0.00 0.00 0.00 75 1008.0
20260508122704 43 282 3.0 3.0 0.00 0.00 0.00 75 1008.0
20260508122204 43 261 2.0 5.0 0.00 0.00 0.00 75 1007.9
20260508120204 42 276 2.0 3.0 0.00 0.00 0.00 77 1007.9
20260508114704 42 271 2.0 3.0 0.00 0.00 0.00 78 1007.8
20260508114204 42 261 3.0 5.0 0.00 0.00 0.00 80 1007.8
20260508112704 41 279 1.0 3.0 0.00 0.00 0.00 83 1007.6
20260508112204 41 279 0.0 2.0 0.00 0.00 0.00 84 1007.6
20260508110704 40 279 1.0 3.0 0.00 0.00 0.00 84 1007.6
20260508110204 40 279 0.0 1.0 0.00 0.00 0.00 84 1007.5
20260508104704 40 279 1.0 3.0 0.00 0.00 0.00 85 1007.4
20260508104204 40 279 1.0 5.0 0.00 0.00 0.00 85 1007.3
20260508102704 39 283 1.0 3.0 0.00 0.00 0.00 85 1007.2
20260508102204 39 283 2.0 3.0 0.00 0.00 0.00 86 1007.2
20260508100704 39 283 0.0 2.0 0.00 0.00 0.00 86 1007.1
20260508100204 39 283 1.0 3.0 0.00 0.00 0.00 87 1007.0
20260508094704 39 283 1.0 2.0 0.00 0.00 0.00 87 1006.9
20260508094204 39 283 1.0 2.0 0.00 0.00 0.00 87 1006.9
20260508092204 38 283 0.0 2.0 0.00 0.00 0.00 88 1006.7
20260508090703 38 283 0.0 1.0 0.00 0.00 0.00 88 1006.7
20260508090204 38 283 0.0 1.0 0.00 0.00 0.00 88 1006.8
20260508084704 38 283 0.0 1.0 0.00 0.00 0.00 88 1006.7
20260508084204 38 283 1.0 2.0 0.00 0.00 0.00 88 1006.8
20260508082704 38 283 0.0 2.0 0.00 0.00 0.00 89 1006.8
20260508082204 38 283 0.0 1.0 0.00 0.00 0.00 89 1006.7
20260508080704 38 283 0.0 0.0 0.00 0.00 0.00 89 1006.7
20260508080203 38 283 0.0 2.0 0.00 0.00 0.00 89 1006.7
20260508074706 38 283 0.0 0.0 0.00 0.00 0.00 89 1006.6
20260508074205 38 283 0.0 2.0 0.00 0.00 0.00 89 1006.6
20260508072706 38 283 0.0 0.0 0.00 0.00 0.00 90 1006.7
20260508072205 37 283 0.0 2.0 0.00 0.00 0.00 89 1006.7
20260508070705 37 283 1.0 3.0 0.00 0.00 0.00 90 1006.7
20260508070205 37 283 0.0 2.0 0.00 0.00 0.00 90 1006.7
20260508064706 37 283 1.0 2.0 0.00 0.00 0.00 89 1006.6
20260508064205 37 283 0.0 2.0 0.00 0.00 0.00 89 1006.7
20260508062705 36 283 0.0 1.0 0.00 0.00 0.00 89 1006.7
20260508062206 36 283 0.0 1.0 0.00 0.00 0.00 89 1006.7
20260508060705 36 283 0.0 0.0 0.00 0.00 0.00 89 1006.8
20260508060205 36 283 0.0 2.0 0.00 0.00 0.00 89 1006.8
20260508054705 36 283 1.0 2.0 0.00 0.00 0.00 89 1006.9
20260508054205 36 283 1.0 2.0 0.00 0.00 0.00 89 1007.0
20260508052705 36 283 0.0 0.0 0.00 0.00 0.00 89 1007.0
20260508052205 36 283 0.0 1.0 0.00 0.00 0.00 89 1006.9
20260508050705 36 283 0.0 0.0 0.00 0.00 0.00 88 1006.9
20260508050205 36 283 0.0 1.0 0.00 0.00 0.00 88 1007.0
20260508044705 36 283 1.0 1.0 0.00 0.00 0.00 88 1007.1
20260508044205 36 283 1.0 3.0 0.00 0.00 0.00 88 1007.2
20260508042704 36 283 1.0 2.0 0.00 0.00 0.00 87 1007.1
20260508042205 36 283 1.0 2.0 0.00 0.00 0.00 87 1007.0
20260508040705 37 283 0.0 0.0 0.00 0.00 0.00 85 1007.0
20260508040205 37 283 0.0 0.0 0.00 0.00 0.00 85 1007.0
20260508034705 38 283 0.0 0.0 0.00 0.00 0.00 84 1006.9
20260508034205 38 283 0.0 2.0 0.00 0.00 0.00 84 1007.0
20260508032704 39 283 0.0 0.0 0.00 0.00 0.00 83 1007.0
20260508032205 39 283 1.0 2.0 0.00 0.00 0.00 82 1007.0
20260508030705 40 283 0.0 1.0 0.00 0.00 0.00 81 1007.1
20260508030205 41 283 0.0 1.0 0.00 0.00 0.00 80 1007.1
20260508024705 41 283 1.0 2.0 0.00 0.00 0.00 78 1007.1
20260508024205 42 283 1.0 3.0 0.00 0.00 0.00 78 1007.1
20260508022704 43 283 1.0 3.0 0.00 0.00 0.00 77 1007.2
20260508022204 43 283 2.0 3.0 0.00 0.00 0.00 76 1007.2
20260508020705 44 288 2.0 3.0 0.00 0.00 0.00 74 1007.0
20260508020205 44 296 3.0 5.0 0.00 0.00 0.00 73 1007.0
20260508014704 45 292 3.0 3.0 0.00 0.00 0.00 71 1007.0
20260508014205 45 291 2.0 3.0 0.00 0.00 0.00 71 1006.9
20260508012705 45 287 3.0 7.0 0.00 0.00 0.00 70 1007.0
20260508012205 45 296 2.0 6.0 0.00 0.00 0.00 70 1006.9
20260508010705 45 276 3.0 6.0 0.00 0.00 0.00 69 1006.9
20260508010205 46 276 3.0 6.0 0.00 0.00 0.00 69 1006.9
20260508004704 46 271 3.0 3.0 0.00 0.00 0.00 68 1006.6